Weather History for Anchorage Merrill, AK

Change the Weather History Date:

Tuesday, January 7, 2014

  Actual Average Record
Temperature  
Mean Temperature 23 °F -  
Max Temperature 27 °F 19 °F 48 °F (2001)
Min Temperature 19 °F 7 °F -22 °F (2009)
Degree Days  
Heating Degree Days 42    
Moisture  
Dew Point 18 °F    
Average Humidity 82    
Maximum Humidity 88    
Minimum Humidity 78    
Precipitation  
Precipitation 0.00 in - - ()
Sea Level Pressure  
Sea Level Pressure 29.55 in    
Wind  
Wind Speed 1 mph (ENE)    
Max Wind Speed 5 mph    
Max Gust Speed -    
Visibility 10 miles    
Events      
Averages and records for this station are not official NWS values.
T = Trace of Precipitation, MM = Missing Value Source: NWS Daily Summary

Daily Weather History Graph

Daily Weather History Graph

Search for Another Location

Airport:

Trip Planner

Search our weather history database for the weather conditions in past years. The results will help you decide how hot, cold, wet, or windy it might be!

Date:

Astronomy

Jan. 07, 2014 Rise Set
Actual Time 10:08 AM AKST 4:04 PM AKST
Civil Twilight 9:09 AM AKST 5:03 PM AKST
Nautical Twilight 8:10 AM AKST 6:01 PM AKST
Astronomical Twilight 7:18 AM AKST 6:54 PM AKST
Moon 11:46 AM AKST (1/7) 12:55 AM AKST (1/7)
Length of Visible Light 7h 54m
Length of Day
5h 56m
Waxing Crescent, 47% of the Moon is Illuminated
Jan 7
Waxing Crescent
Jan 7
First Quarter
Jan 15
Full
Jan 23
Last Quarter
Jan 30
New

Hourly Weather History & Observations

Time (AKST) Temp. Windchill Dew Point Humidity Pressure Visibility Wind Dir Wind Speed Gust Speed Precip Events Conditions
12:53 AM 21.0 °F - 17.1 °F 85% 29.68 in 10.0 mi Calm Calm - N/A   Scattered Clouds
1:53 AM 19.0 °F - 16.0 °F 88% 29.67 in 10.0 mi Calm Calm - N/A   Scattered Clouds
3:53 AM 19.0 °F - 14.0 °F 81% 29.66 in 10.0 mi Calm Calm - N/A   Mostly Cloudy
4:53 AM 19.9 °F - 15.1 °F 81% 29.64 in 10.0 mi Calm Calm - N/A   Scattered Clouds
5:53 AM 21.0 °F - 16.0 °F 81% 29.63 in 10.0 mi Calm Calm - N/A   Mostly Cloudy
6:53 AM 21.9 °F - 17.1 °F 82% 29.60 in 10.0 mi Calm Calm - N/A   Mostly Cloudy
7:53 AM 19.0 °F 12.3 °F 15.1 °F 85% 29.60 in 10.0 mi East 4.6 mph - N/A   Clear
8:53 AM 19.9 °F 14.9 °F 15.1 °F 81% 29.59 in 10.0 mi East 3.5 mph - N/A   Clear
9:53 AM 21.9 °F - 17.1 °F 82% 29.60 in 10.0 mi Calm Calm - N/A   Clear
10:53 AM 21.0 °F - 15.1 °F 78% 29.59 in 10.0 mi Calm Calm - N/A   Scattered Clouds
11:53 AM 21.9 °F 15.7 °F 17.1 °F 82% 29.59 in 10.0 mi ENE 4.6 mph - N/A   Partly Cloudy
12:53 PM 25.0 °F - 19.9 °F 81% 29.57 in 10.0 mi Calm Calm - N/A   Clear
1:53 PM 26.1 °F - 21.9 °F 84% 29.55 in 10.0 mi Calm Calm - N/A   Mostly Cloudy
2:53 PM 27.0 °F - 21.9 °F 81% 29.53 in 10.0 mi Calm Calm - N/A   Clear
3:53 PM 27.0 °F - 23.0 °F 85% 29.53 in 10.0 mi Calm Calm - N/A   Mostly Cloudy
4:53 PM 26.1 °F 21.9 °F 21.0 °F 81% 29.51 in 10.0 mi NE 3.5 mph - N/A   Mostly Cloudy
5:53 PM 25.0 °F 20.7 °F 19.9 °F 81% 29.48 in 10.0 mi Variable 3.5 mph - N/A   Clear
6:53 PM 23.0 °F - 18.0 °F 81% 29.47 in 10.0 mi Calm Calm - N/A   Clear
7:53 PM 25.0 °F - 19.9 °F 81% 29.47 in 10.0 mi Calm Calm - N/A   Overcast
8:53 PM 24.1 °F - 19.9 °F 84% 29.45 in 10.0 mi Calm Calm - N/A   Scattered Clouds
9:53 PM 21.9 °F - 17.1 °F 82% 29.44 in 10.0 mi Calm Calm - N/A   Overcast
10:53 PM 21.9 °F - 17.1 °F 82% 29.42 in 10.0 mi Calm Calm - N/A   Overcast
11:53 PM 21.0 °F - 17.1 °F 85% 29.43 in 10.0 mi Calm Calm - N/A   Overcast